Regional Weather Roundup
Issued by NWS

Current Version | Previous Version | Text Only | Print | Product List | Glossary On
Versions: 1 2 3 4 5 6 7 8 9 10 11 12 13 14 15 16 17 18 19 20 21 22 23 24 25 26 27 28 29 30 31 32 33 34 35 36 37 38 39 40 41 42 43 44 45 46 47 48 49 50
000
ASUS46 KLOX 281802
RWRCA

SOUTHERN CALIFORNIA WEATHER ROUNDUP
NATIONAL WEATHER SERVICE OXNARD CALIFORNIA
1000 AM PST SAT FEB 28 2015

NOTE: "FAIR" INDICATES FEW OR NO CLOUDS BELOW 12,000 FEET WITH NO
SIGNIFICANT WEATHER AND/OR OBSTRUCTIONS TO VISIBILITY.

  -  STATIONS PRECEEDED BY AN ASTERISK (*) ARE NOT NWS OR FAA
     STATIONS AND ARE NOT SUBJECT TO NWS AND FAA QUALITY CONTROL.

CAZ041-042-087-281900-
LA AND ORANGE COUNTY COASTAL AREAS


CITY           SKY/WX    TMP DP  RH WIND       PRES   REMARKS
L.A. DOWNTOWN  PTSUNNY   60  44  55 VRB3      29.86R
L.A. AIRPORT   PTSUNNY   58  45  62 W14       29.87R
LONG BEACH     MOSUNNY   61  44  53 W13       29.87R

CITY           SKY/WX    TMP DP  RH WIND       PRES   REMARKS
AVALON           N/A    N/A N/A N/A MISG        N/A
FULLERTON      PTSUNNY   62  41  46 SW8G17    29.86R
*GETTY CENTER    N/A    N/A N/A N/A SE3G10      N/A
HAWTHORNE      CLOUDY    60  45  57 VRB7      29.87R
*LEO CARRILLO    N/A     62  47  56 W8          N/A
*LOS ALAMITOS  CLOUDY    63  47  56 SW14G22   29.87R
*REDONDO BEACH   N/A     61  47  59 W2        29.87S
SANTA ANA      PTSUNNY   64  45  49 W8G21     29.88R
STA MONICA APT PTSUNNY   60  42  51 SW8       29.86R
*UCLA            N/A     57  41  54 SW6       29.83S

$$

CAZ547-548-048-281900-
LA COUNTY VALLEYS AND INLAND EMPIRE


CITY           SKY/WX    TMP DP  RH WIND       PRES   REMARKS
BURBANK        MOSUNNY   56  44  64 S6        29.85R
VAN NUYS       PTSUNNY   58  40  51 W5        29.85R

CITY           SKY/WX    TMP DP  RH WIND       PRES   REMARKS
CORONA AIRPORT PTCLDY    58  44  59 SW10G17   29.87S
*CHATSWORTH      N/A     57  44  62 CALM      29.86R
CHINO          PTSUNNY   60  45  57 SW10      29.87S
MARCH AFB      PTSUNNY   55  40  57 W7        29.86S
*NORTHRIDGE      N/A     55  39  54 S5G10       N/A
ONTARIO        PTSUNNY   58  41  53 SW14      29.86R
*PASADENA        N/A     57  48  72 E6          N/A
POMONA         PTSUNNY   55  45  67 SW8       29.89R
RIVERSIDE      PTSUNNY   59  42  53 W7        29.86S
SAN BERNARDINO PTSUNNY   54  37  54 SW10      29.87R
*SAN GABRIEL     N/A     58  41  54 CALM      29.84R
*SAN RAFAEL HI   N/A     56  49  78 S10         N/A
*SAUGUS          N/A     51  40  66 NW3         N/A
*WHITEMAN AP   PTSUNNY   55  39  54 SE5       29.88R
*WHITTIER HILL   N/A     59  45  59 SW10        N/A
*WOODLAND HILL   N/A     57  41  54 S5          N/A

$$

CAZ054-055-281900-
LA AND SAN BERNARDINO COUNTY MOUNTAINS


CITY           SKY/WX    TMP DP  RH WIND       PRES   REMARKS
*BIG BEAR AIRP PTCLDY    32  23  69 SW8G22    29.79S WCI  25
MT WILSON NWS    N/A    N/A N/A N/A MISG        N/A
SANDBERG       SUNNY     46  29  51 S14G22    29.80R

$$

CAZ028-029-059-060-099-281900-
ANTELOPE VALLEY AND SURROUNDING AREAS


CITY           SKY/WX    TMP DP  RH WIND       PRES   REMARKS
LANCASTER      SUNNY     52  35  52 SW16      29.81R
PALMDALE       MOSUNNY   52  34  50 W16G30    29.80S
*POPPY PARK      N/A     53  38  56 SW17        N/A

CITY           SKY/WX    TMP DP  RH WIND       PRES   REMARKS
29 PALMS       MOSUNNY   58  37  45 CALM      29.83S
BARSTOW/DAGGET MOSUNNY   58  33  39 SW26G35   29.76S
BISHOP         MOSUNNY   51  13  21 NW7         N/A
CHINA LAKE     SUNNY     55  25  31 SW28G38   29.68F
EDWARDS AFB    MOSUNNY   53  32  44 SW18      29.78R
MOJAVE         FAIR      50  32  50 W15G22    29.80R
NEEDLES        PTSUNNY   66  37  34 S10G16    29.75R
VICTORVILLE    PTSUNNY   48  36  61 S13       29.80R

$$

CAZ039-040-281900-
VENTURA AND SANTA BARBARA COUNTY COAST


CITY           SKY/WX    TMP DP  RH WIND       PRES   REMARKS
CAMARILLO      SUNNY     59  43  55 W13       29.85R
OXNARD AIRPORT MOSUNNY   60  45  57 W16       29.85R
*POINT MUGU    PTSUNNY   60  46  59 W16       29.87R
SBA APT/GOLETA SUNNY     60  45  57 W12       29.84R
*SANTA BARBARA   N/A     63  40  44 NE5       29.92R
*VENTURA         N/A     59  42  53 W9        29.87S

$$

CAZ044-045-281900-
VENTURA COUNTY VALLEYS


CITY           SKY/WX    TMP DP  RH WIND       PRES   REMARKS
*SIMI VALLEY     N/A     54  44  69 CALM      29.83S
*OJAI            N/A     59  41  51 NW1       29.80S
*FILLMORE        N/A     59  47  66 CALM      29.75R

$$

CAZ053-281900-
VENTURA COUNTY MOUNTAINS


CITY           SKY/WX    TMP DP  RH WIND       PRES   REMARKS
*LOCKWOOD VLY    N/A     43  25  49 MISG        N/A
*ROSE VALLEY     N/A     50  36  57 MISG        N/A

$$

CAZ034-035-036-281900-
CENTRAL COAST AND SANTA YNEZ VALLEY


CITY           SKY/WX    TMP DP  RH WIND       PRES   REMARKS
SAN LUIS OBISP PTSUNNY   55  47  74 CALM      29.85R
SANTA MARIA    PTSUNNY   55  46  71 CALM      29.86R

CITY           SKY/WX    TMP DP  RH WIND       PRES   REMARKS
*CAL POLY SLO    N/A     54  48  82 SE6         N/A
*LOMPOC        MOSUNNY   57  46  67 W7        29.87S
*PISMO BEACH     N/A     57  49  76 SW3       29.87R
*SANTA YNEZ    FAIR      54  43  66 CALM      29.86R

$$

CAZ037-038-051-281900-
SAN LUIS OBISPO COUNTY INTERIOR AND CUYAMA VALLEY


CITY           SKY/WX    TMP DP  RH WIND       PRES   REMARKS
*CUYAMA          N/A     48  38  69 CALM      29.81S
PASO ROBLES    MOSUNNY   54  44  69 MISG      29.83R

$$

CAZ032-033-061-281900-
SOUTHERN DESERTS


CITY           SKY/WX    TMP DP  RH WIND       PRES   REMARKS
BLYTHE         SUNNY     69  40  34 SW22G29   29.80R
IMPERIAL       SUNNY     68  43  40 W26G33    29.82R
PALM SPRINGS   MOSUNNY   67  33  28 E14       29.79S
THERMAL        SUNNY     70  32  24 W17G23    29.78R

$$

ELSEWHERE ACROSS THE WESTERN UNITED STATES AND MEXICO


CITY           SKY/WX    TMP DP  RH WIND       PRES   REMARKS
DENVER, CO     PTSUNNY   16   8  71 W7        29.97S WCI   6
GRAND CANYON,  LGT SNOW  34  31  88 SW10G22   29.75R FOG     WCI  26
HONOLULU, HI   CLOUDY    73  66  78 NW7       29.96R
KAHULUI, MAUI  PTSUNNY   73  68  84 E6        29.94R
LAKE TAHOE, CA CLOUDY    34  20  56 S6        29.68R WCI  29
LAS VEGAS, NV  MOSUNNY   58  28  32 SW18G32   29.65R
MAMMOTH LAKES, FAIR      34  10  37 W3        29.67R
MEXICO CITY, M SUNNY     72  37  28 CALM      30.32F
PHOENIX, AZ    PTSUNNY   65  47  52 S12       29.83R
PORTLAND, OR   SUNNY     50  35  56 NW3       30.11R
RENO, NV       LGT SNOW  35  32  88 NW9       29.73R VSB 3/4 WCI  28
SALT LAKE CITY CLOUDY    42  21  43 SE10      29.69S
SAN DIEGO, CA  PTSUNNY   61  46  57 W8        29.93R
SAN FRANCISCO, MOSUNNY   57  46  66 W12       29.79S
SAN JOSE, CA   PTSUNNY   56  43  61 NW5       29.80R
SEATTLE, WA    SUNNY     48  31  51 N14       30.18R
TIJUANA, MEX   PTSUNNY   59  46  63 W13       29.94

$$

STATION/POSITION TIME  TEMP    WIND        PRES    VSBY  WAVE
                       AIR SEA DIR/SP/G                  HT/PER
                 (UTC) (F)     (DEG/KT/KT) (MB)    (MI)  (FT/S)
POINT ARGUELLO B NOT AVBL
WEST SANTA BARBA 1700   55 59  340/  8/ 10 1010.7R         5/ 7
POINT CONCEPTION NOT AVBL
EAST SANTA BARBA NOT AVBL
SANTA MONICA BAY 1800   57 62  270/ 16/ 17 1011.5R         4/ 5


USA.gov is the U.S. government's official web portal to all federal, state and local government web resources and services.